Other Surface Observations
Issued by NWS

Current Version | Previous Version | Text Only | Print | Product List | Glossary On
Versions: 1 2 3 4 5 6 7 8 9 10 11 12 13 14 15 16 17 18 19 20 21 22 23 24 25 26 27 28 29 30 31 32 33 34 35 36 37 38 39 40 41 42 43 44 45 46 47 48 49 50
000
SXUS52 KTAE 260318
OSOTAE
OSOTAE
North Florida/South Alabama/Southwest Georgia Weather Roundup
National Weather Service Tallahassee Florida
1100 PM EDT SAT OCT 25 2014

Note: "fair" indicates few or no clouds below 12,000 feet with no
significant weather and/or obstructions to visibility.

!FLZ017-115-028-034-025-260400
...North Florida...

CITY           SKY/WX    TMP DP  RH WIND       PRES   REMARKS
TALLAHASSEE    CLEAR     54  47  77 CALM      30.03S
APALACHICOLA   CLEAR     57  50  77 NW3       30.04R
PERRY          CLEAR     52  52 100 CALM      30.04S
CROSS CITY       N/A     54  51  90 N5        30.02R
JACKSONVILLE   CLEAR     53  53 100 W3        30.02R
$$

!FLZ112-006-005-002-011-260400
...Florida Panhandle...

CITY           SKY/WX    TMP DP  RH WIND       PRES   REMARKS
MARIANNA       LGT RAIN  57  54  89 CALM      30.05R
BONIFAY        FAIR      55  54  96 CALM      30.06S
PANAMA CITY NW FAIR      56  51  84 CALM      30.04S
TYNDALL AFB    CLEAR     65  53  65 N5        30.05R
TYND DRONE APT FAIR      60  51  73 MISG      30.04R
DE FUNIAK SPR  FAIR      60  52  76 NW5       30.06S
EGLIN AFB      CLEAR     58  49  74 N5        30.06R
DESTIN         CLEAR     66  55  67 N5        30.06R
HURLBURT       CLEAR     57  49  74 N5        30.05S
CRESTVIEW      CLEAR     52  50  93 CALM      30.08R
PENSACOLA      CLEAR     62  52  69 CALM      30.06S
$$

!ALZ063-066-260400
...South Alabama...

CITY           SKY/WX    TMP DP  RH WIND       PRES   REMARKS
DOTHAN         CLEAR     60  51  72 N6        30.08S
OZARK CAIRNS   CLEAR     58  50  75 NW3       30.05S
FT RUCKER HELI CLEAR     53  51  93 CALM      30.05S
RUCKER HELI 3  FAIR      54  52  93 NW3       30.08S
RUCKER HELI 2  FAIR      55  52  89 NW3       30.06S
FLORALA APT    CLEAR     54  49  83 CALM      30.08S
ANDALUSIA      CLEAR     60  51  72 CALM      30.07R
TROY           CLEAR     53  50  89 CALM      30.07S
EUFALA         FAIR      57  52  83 NW3       30.04S
MOBILE         CLEAR     58  57  97 W3        30.09R
$$

!GAZ120>161-260400
...Southwest and South Central Georgia...

CITY           SKY/WX    TMP DP  RH WIND       PRES   REMARKS
THOMASVILLE    FAIR      55  52  88 CALM      30.05S
BAINBRIDGE     CLEAR     59  52  77 CALM      30.05S
MOODY AFB      CLEAR     57  47  70 SW1       30.02F
VALDOSTA       CLEAR     52  44  74 CALM      30.03S
MOULTRIE       CLEAR     55  52  88 CALM      30.04F
BLAKELY        CLEAR     55  52  88 CALM        N/A
ALBANY         CLEAR     55  50  83 CALM      30.06R
TIFTON         FAIR      58  48  69 CALM      30.03S
FITZGERALD     FAIR      55  48  78 CALM      30.05S
CORDELE        FAIR      55  51  87 CALM      30.05R
AMERICUS       FAIR      52  48  87 CALM      30.05S
HOMERVILLE     FAIR      54  52  94 CALM      30.03S
$$

!GMZ750-755-770-775-260400
...Coastal and Buoy Obs...

STATION/POSITION TIME  TEMP    WIND        PRES    VSBY  WAVE
                       AIR SEA DIR/SP/G                  HT/PER
                 (UTC) (F)     (DEG/KT/KT) (MB)    (MI)  (FT/S)
KEATON BEACH     0300   67     360/  4/  6 1016.9R
CEDAR KEY        0255   66     360/  3/  5 1016.9R
C TOWER          0300   74     360/ 12/ 13 1016.9R
APALACHICOLA BUO 0300   74 80   10/ 14/ 16 1016.7R         2/ 4
PANAMA CITY BUOY 0200   76 79   20/ 12/ 16 1017.4R         3/ 5
MOBILE BUOY      0230   74 79  340/ 12/ 16 1019.0R         2/ 4
ORANGE BCH AL BU 0300   76 78   20/ 10/ 12 1017.7R         1/ 2
$$



USA.gov is the U.S. government's official web portal to all federal, state and local government web resources and services.